Regional Weather Roundup
Issued by NWS Sioux Falls, SD

Home | Current Version | Previous Version | Graphics & Text | Print | Product List | Glossary Off
Versions: 1 2 3 4 5 6 7 8 9 10 11 12 13 14 15 16 17 18 19 20 21 22 23 24 25 26 27 28 29 30 31 32 33 34 35 36 37 38 39 40 41 42 43 44 45 46 47 48 49 50

000
ASUS43 KFSD 110902
RWRFSD

WEATHER ROUNDUP FOR SE SOUTH DAKOTA/SW MINNESOTA/NW IOWA
NATIONAL WEATHER SERVICE SIOUX FALLS SD
300 AM CST THU FEB 11 2016

NOTE: "FAIR" INDICATES FEW OR NO CLOUDS BELOW 12,000 FEET WITH NO
SIGNIFICANT WEATHER AND OR OBSTRUCTIONS TO VISIBILITY.


SDZ038>040-050-052>070-111000-
SOUTHEAST SOUTH DAKOTA

CITY           SKY/WX    TMP DP  RH WIND       PRES   REMARKS
BROOKINGS      CLOUDY    11   6  81 E3        30.22R
CHAMBERLAIN    NOT AVBL
HURON          CLOUDY    16  10  77 CALM      30.25R
MADISON        CLOUDY    10   9  92 MISG      30.22R
MITCHELL       CLOUDY    18  12  77 SE5       30.25R WCI  11
SIOUX FALLS    CLOUDY    13   5  70 E6        30.24S WCI   4
WINNER         CLOUDY    27  22  81 CALM      30.17F
YANKTON        CLOUDY    16  10  79 E7        30.24S WCI   6
$$

MNZ071-072-080-081-089-090-097-098-111000-
SOUTHWEST MINNESOTA

CITY           SKY/WX    TMP DP  RH WIND       PRES   REMARKS
FAIRMONT       CLOUDY     3  -2  78 CALM      30.25R
JACKSON        CLOUDY     3  -2  78 VRB5      30.24S WCI  -6
LUVERNE        CLOUDY    14   7  73 E3        30.25R
MARSHALL       PTCLDY     5   1  83 W5        30.28R WCI  -4
MONTEVIDEO     CLOUDY     3   0  85 NW3       30.29S
PIPESTONE      CLOUDY    14   3  62 CALM      30.20
REDWOOD FALLS  CLOUDY     5   1  83 CALM      30.28S
TRACY          CLOUDY     6   3  88 CALM      30.25S
WINDOM         CLOUDY     0  -4  85 CALM      30.24S
WORTHINGTON    CLOUDY     9   1  72 NE3       30.23S
$$

IAZ001>003-012>014-020>022-031-032-NEZ013-014-SDZ071-111000-
NORTHWEST IOWA

CITY           SKY/WX    TMP DP  RH WIND       PRES   REMARKS
ESTHERVILLE    CLOUDY     1  -2  87 N5        30.24R WCI  -9
SIOUX CITY     CLOUDY    17   9  70 E7        30.26F WCI   8
SPENCER        CLOUDY    12   3  67 NE6       30.24F WCI   3
STORM LAKE     CLOUDY    12   5  73 NE10      30.23R WCI  -1
$$

ABBREVIATIONS USED IN REMARKS
   TC - TEMPERATURE IN CELSIUS
  WCI - WIND CHILL INDEX
   HX - HEAT INDEX
  VSB - VISIBILITY




USA.gov is the U.S. government's official web portal to all federal, state and local government web resources and services.